Weather History for KMZZ - May, 2013

Change the Weather History Date:

Monday, May 27, 2013

  Actual Average (KMIE) Record (KMIE)
Temperature  
Mean Temperature 60 °F 65 °F  
Max Temperature 68 °F 75 °F 94 °F (2012)
Min Temperature 52 °F 55 °F 35 °F (1983)
Degree Days  
Heating Degree Days 5 3  
Month to date heating degree days 156  
Since 1 July heating degree days 5748  
Cooling Degree Days 0 3  
Month to date cooling degree days 52  
Year to date cooling degree days 67  
Growing Degree Days 10 (Base 50)    
Moisture  
Dew Point 54 °F    
Average Humidity 80    
Maximum Humidity 94    
Minimum Humidity 52    
Precipitation  
Precipitation 1.51 in 0.16 in 1.59 in (2013)
Month to date precipitation 3.78  
Year to date precipitation 14.94  
Sea Level Pressure  
Sea Level Pressure 30.06 in    
Wind  
Wind Speed 9 mph (SE)    
Max Wind Speed 21 mph    
Max Gust Speed 26 mph    
Visibility 8 miles    
Events Rain    
T = Trace of Precipitation, MM = Missing Value Source: NWS Daily Summary

Daily Weather History Graph

Daily Weather History Graph

Search for Another Location

Airport or City:

Trip Planner

Search our weather history database for the weather conditions in past years. The results will help you decide how hot, cold, wet, or windy it might be!

Date:

Astronomy

May. 27, 2013 Rise Set
Actual Time 6:16 AM EDT 9:03 PM EDT
Civil Twilight 5:44 AM EDT 9:35 PM EDT
Nautical Twilight 5:04 AM EDT 10:16 PM EDT
Astronomical Twilight 4:18 AM EDT 11:02 PM EDT
Moon 11:41 PM EDT (5/27) 8:53 AM EDT (5/27)
Length of Visible Light 15h 50m
Length of Day
14h 46m
Waning Gibbous, 91% of the Moon is Illuminated
May 27
Waning Gibbous
May 31
Last Quarter
Jun 8
New
Jun 16
First Quarter
Jun 23
Full

Hourly Weather History & Observations

Time (EDT) Temp. Dew Point Humidity Pressure Visibility Wind Dir Wind Speed Gust Speed Precip Events Conditions
12:15 AM 60.3 °F 46.9 °F 61% 30.20 in 10.0 mi SE 6.9 mph - N/A   Overcast
12:35 AM 60.8 °F 45.5 °F 57% 30.20 in 10.0 mi SE 5.8 mph - N/A   Overcast
12:55 AM 61.0 °F 45.0 °F 56% 30.19 in 10.0 mi SE 4.6 mph - N/A   Overcast
1:15 AM 61.0 °F 45.0 °F 56% 30.19 in 10.0 mi SE 8.1 mph - N/A   Overcast
1:35 AM 60.6 °F 45.1 °F 57% 30.17 in 10.0 mi ESE 5.8 mph - N/A   Overcast
1:55 AM 60.3 °F 45.1 °F 57% 30.18 in 10.0 mi SE 5.8 mph - N/A   Overcast
2:15 AM 60.8 °F 43.9 °F 54% 30.17 in 10.0 mi SSE 8.1 mph - N/A   Overcast
2:35 AM 60.8 °F 43.2 °F 52% 30.17 in 10.0 mi SE 9.2 mph - N/A   Overcast
2:55 AM 60.8 °F 43.3 °F 53% 30.16 in 10.0 mi SE 8.1 mph - N/A   Overcast
3:15 AM 60.4 °F 43.5 °F 54% 30.16 in 10.0 mi SE 8.1 mph - N/A   Overcast
3:35 AM 60.4 °F 43.5 °F 54% 30.17 in 10.0 mi SE 6.9 mph - N/A   Overcast
3:55 AM 60.1 °F 44.2 °F 56% 30.17 in 10.0 mi SE 5.8 mph - N/A   Overcast
4:15 AM 58.5 °F 46.4 °F 64% 30.18 in 7.0 mi SSE 6.9 mph - 0.01 in Rain Light Rain
4:35 AM 56.7 °F 48.6 °F 74% 30.18 in 7.0 mi ESE 4.6 mph - 0.02 in   Overcast
4:55 AM 55.6 °F 49.8 °F 81% 30.18 in 7.0 mi SE 6.9 mph - 0.04 in Rain Rain
5:15 AM 54.9 °F 50.0 °F 84% 30.17 in 7.0 mi SE 6.9 mph - 0.03 in Rain Light Rain
5:35 AM 54.5 °F 50.2 °F 85% 30.16 in 7.0 mi SE 11.5 mph - 0.05 in Rain Light Rain
5:55 AM 54.1 °F 50.0 °F 86% 30.17 in 5.0 mi SE 9.2 mph - 0.10 in Rain Rain
6:15 AM 53.8 °F 50.2 °F 88% 30.16 in 3.0 mi ESE 12.7 mph - 0.08 in Rain Rain
6:35 AM 53.2 °F 50.2 °F 89% 30.17 in 2.5 mi SE 11.5 mph - 0.21 in Rain Heavy Rain
6:55 AM 52.9 °F 50.4 °F 91% 30.17 in 2.5 mi SE 13.8 mph 19.6 mph 0.34 in Rain Rain
7:15 AM 52.7 °F 50.4 °F 92% 30.17 in 4.0 mi ESE 11.5 mph 16.1 mph 0.02 in Rain Light Rain
7:35 AM 52.7 °F 50.4 °F 92% 30.16 in 7.0 mi ESE 16.1 mph - 0.03 in   Overcast
7:55 AM 52.9 °F 50.4 °F 91% 30.16 in 10.0 mi SE 16.1 mph 20.7 mph 0.03 in   Overcast
8:15 AM 53.1 °F 50.4 °F 91% 30.14 in 10.0 mi SE 17.3 mph 23.0 mph N/A   Overcast
8:35 AM 53.2 °F 50.2 °F 89% 30.14 in 10.0 mi SE 17.3 mph - N/A   Mostly Cloudy
8:55 AM 54.1 °F 50.4 °F 87% 30.13 in 10.0 mi SE 18.4 mph - N/A   Mostly Cloudy
9:15 AM 54.7 °F 50.2 °F 85% 30.13 in 10.0 mi ESE 18.4 mph 25.3 mph N/A   Mostly Cloudy
9:35 AM 55.2 °F 50.2 °F 83% 30.13 in 10.0 mi ESE 17.3 mph 25.3 mph N/A   Mostly Cloudy
9:55 AM 56.1 °F 50.5 °F 82% 30.13 in 7.0 mi SE 20.7 mph 26.5 mph N/A   Overcast
10:15 AM 56.3 °F 50.5 °F 81% 30.11 in 10.0 mi SE 19.6 mph 23.0 mph N/A   Scattered Clouds
10:35 AM 56.3 °F 50.9 °F 82% 30.11 in 10.0 mi SE 17.3 mph 23.0 mph N/A   Scattered Clouds
10:55 AM 57.0 °F 50.9 °F 80% 30.10 in 10.0 mi SE 13.8 mph - N/A   Clear
11:15 AM 57.2 °F 50.9 °F 79% 30.08 in 7.0 mi SE 13.8 mph - N/A   Scattered Clouds
11:35 AM 57.6 °F 51.1 °F 79% 30.08 in 10.0 mi SE 15.0 mph - N/A   Overcast
11:55 AM 59.0 °F 51.6 °F 76% 30.08 in 10.0 mi SE 13.8 mph 17.3 mph N/A   Mostly Cloudy
12:15 PM 61.2 °F 52.9 °F 74% 30.06 in 10.0 mi SE 17.3 mph - N/A   Scattered Clouds
12:35 PM 61.9 °F 52.5 °F 71% 30.06 in 10.0 mi SE 15.0 mph - N/A   Mostly Cloudy
12:55 PM 61.7 °F 52.5 °F 72% 30.08 in 7.0 mi SSE 8.1 mph - N/A   Overcast
1:15 PM 61.0 °F 53.6 °F 77% 30.06 in 7.0 mi ESE 8.1 mph - 0.01 in   Overcast
1:35 PM 62.2 °F 55.6 °F 79% 30.05 in 10.0 mi ESE 5.8 mph - 0.01 in   Overcast
1:55 PM 64.8 °F 56.3 °F 74% 30.04 in 10.0 mi SE 8.1 mph - 0.01 in   Overcast
2:15 PM 65.3 °F 55.6 °F 71% 30.03 in 10.0 mi SE 12.7 mph - N/A   Overcast
2:35 PM 65.3 °F 55.9 °F 72% 30.03 in 10.0 mi ESE 8.1 mph - N/A   Overcast
2:55 PM 65.8 °F 56.8 °F 73% 30.03 in 7.0 mi ESE 5.8 mph - N/A   Overcast
3:15 PM 66.4 °F 57.6 °F 73% 30.02 in 7.0 mi SE 5.8 mph - N/A   Overcast
3:35 PM 67.5 °F 57.7 °F 71% 30.01 in 7.0 mi SE 9.2 mph - N/A   Overcast
3:55 PM 68.2 °F 57.9 °F 70% 30.00 in 10.0 mi SE 6.9 mph - N/A   Overcast
4:15 PM 68.7 °F 59.0 °F 71% 29.98 in 7.0 mi SE 8.1 mph - N/A   Overcast
4:35 PM 68.5 °F 60.3 °F 75% 29.96 in 7.0 mi East 5.8 mph - N/A   Overcast
4:55 PM 67.5 °F 61.2 °F 80% 29.95 in 2.5 mi NE 8.1 mph - 0.10 in Rain Heavy Rain
5:15 PM 65.3 °F 61.5 °F 88% 29.96 in 0.5 mi East 8.1 mph - 0.33 in Rain Light Rain
5:35 PM 64.9 °F 61.9 °F 90% 29.96 in 1.8 mi NE 6.9 mph - 0.47 in Rain Heavy Rain
5:55 PM 64.9 °F 62.2 °F 91% 29.96 in 5.0 mi NE 5.8 mph - 0.54 in   Overcast
6:15 PM 64.9 °F 62.6 °F 92% 29.94 in 5.0 mi ENE 8.1 mph - 0.01 in Rain Light Rain
6:35 PM 65.1 °F 63.0 °F 93% 29.93 in 5.0 mi East 8.1 mph - 0.01 in   Overcast
6:55 PM 65.3 °F 63.3 °F 93% 29.93 in 5.0 mi East 6.9 mph - 0.01 in   Overcast
7:15 PM 65.5 °F 63.5 °F 93% 29.94 in 5.0 mi East 4.6 mph - N/A Rain Light Rain
7:35 PM 65.5 °F 63.5 °F 93% 29.95 in 5.0 mi Calm Calm - 0.02 in   Overcast
7:55 PM 65.5 °F 63.5 °F 93% 29.94 in 2.0 mi ESE 4.6 mph - 0.10 in Rain Light Rain
8:15 PM 65.5 °F 63.7 °F 94% 29.93 in 3.0 mi SE 6.9 mph - 0.01 in Rain Light Rain
8:35 PM 65.8 °F 64.0 °F 94% 29.95 in 5.0 mi WNW 8.1 mph - 0.02 in Rain Light Rain
8:55 PM 66.0 °F 64.2 °F 94% 29.95 in 4.0 mi SSW 6.9 mph - 0.16 in Rain Rain
9:15 PM 65.8 °F 63.9 °F 93% 29.95 in 5.0 mi WSW 11.5 mph - 0.03 in Rain Rain
9:35 PM 65.1 °F 63.0 °F 93% 29.94 in 7.0 mi SSW 5.8 mph - 0.08 in Rain Light Rain
9:55 PM 64.8 °F 62.6 °F 93% 29.93 in 10.0 mi SSE 3.5 mph - 0.08 in   Overcast
10:15 PM 64.6 °F 62.6 °F 93% 29.92 in 7.0 mi SSE 6.9 mph - N/A   Overcast
10:35 PM 64.4 °F 62.4 °F 93% 29.93 in 10.0 mi SE 4.6 mph - N/A   Overcast
10:55 PM 64.4 °F 62.2 °F 93% 29.92 in 7.0 mi SSE 5.8 mph - N/A   Scattered Clouds
11:15 PM 64.2 °F 62.1 °F 93% 29.94 in 10.0 mi Calm Calm - N/A   Clear
11:35 PM 63.5 °F 61.7 °F 94% 29.94 in 5.0 mi SE 4.6 mph - N/A   Clear
11:55 PM 62.8 °F 61.0 °F 94% 29.94 in 5.0 mi SE 3.5 mph - N/A   Scattered Clouds